Starlink 11618

operational
NORAD ID: 63185 Int'l Des: 2025-048 Owner: SPXS Country: US Constellation: starlink
LEOCIRCULAR

Starlink 11618について

説明を読み込み中...

リアルタイム位置

3D地球を読み込み中...

次回通過

高度履歴

Altitude vs Time

uPlot chart will show altitude changes over time

軌道要素

1 63185U 25048C 26095.58619249 .00158357 00000-0 12127-2 0 9992
2 63185 42.9993 157.5639 0001295 296.9172 63.1563 15.70870779 62744
Epoch: Apr 5, 2026 • Age: 6 hours

現在のステータス

高度 368.7 km
速度 7.69 km/s
衛星直下点 -43.14°S, 62.97°W
打ち上げ日 Mar 13, 2025
運用期間 1 years
タイプ internet

技術仕様

分類 Payload
質量 960.00 kg
乾燥質量 910.00 kg
総質量 960.00 kg
長さ 0.30 m
直径 4.10 m
スパン 29.00 m
形状 Box + pan
製造者 SPXS
バスタイプ Starlink V2MD
フェーズステータス In Orbit
所有者/国 SPXS/US

大規模コンステレーション

Loading constellations...